Location: Bodest
(46.3000°N, 22.5667°E)
Time: 20:56:03
(UTC+00:00)

Cosmos 2369 - Pass Details

Date: 16 October 2021
Orbit: 838 x 857 km, 71.0° (Epoch: 29 November)

Event Time Altitude Azimuth Distance (km) Brightness Sun altitude
Rises 17:01:25 0° 206° (SSW) 3,380 7.2 -14.6°
Reaches altitude 10° 17:03:50 10° 206° (SSW) 2,451 6.4 -15.0°
Maximum altitude 17:09:28 87° 294° (WNW) 851 3.7 -16.0°
Drops below altitude 10° 17:15:11 10° 26° (NNE) 2,478 5.9 -16.9°
Sets 17:17:39 0° 27° (NNE) 3,420 6.6 -17.4°
